Hourly Data Report for May 31, 2016

All times are specified in Local Standard Time (LST). Add 1 hour to adjust for Daylight Saving Time where and when it is observed.

LA RONGE RCS
SASKATCHEWAN

55°08'47.020" N
105°16'13.030" W
378.60 m
4064149
71586
XOX

Download Data

Hourly Data (May 2016)
Hourly Data Report for May 31, 2016
TIME Temp Definition
°C
Dew Point Definition
°C
Rel Hum Definition
%
Wind Dir Definition
10's deg

Wind Spd Definition
km/h
Visibility Definition
km
Stn Press Definition
kPa
Hmdx Definition


Wind Chill Definition


Weather Definition


00:00 10.7 9.0 89 2 11   97.46     LegendNANA
01:00 10.4 9.4 94 3 8   97.44     LegendNANA
02:00 10.5 9.5 93 10 7   97.44     LegendNANA
03:00 10.3 9.3 94   0   97.46     LegendNANA
04:00 10.3 9.3 94 5 2   97.47     LegendNANA
05:00 10.2 9.3 94 4 3   97.47     LegendNANA
06:00 10.5 9.6 94 4 4   97.50     LegendNANA
07:00 11.1 9.8 92 9 5   97.52     LegendNANA
08:00 11.2 9.4 89 13 7   97.51     LegendNANA
09:00 11.7 9.7 87 14 8   97.51     LegendNANA
10:00 12.9 8.4 74 21 4   97.50     LegendNANA
11:00 14.4 7.8 65 12 4   97.47     LegendNANA
12:00 14.6 6.8 59 3 6   97.44     LegendNANA
13:00 16.0 5.1 48 13 10   97.41     LegendNANA
14:00 16.2 4.1 44 16 9   97.37     LegendNANA
15:00 16.5 3.4 42 15 10   97.33     LegendNANA
16:00 16.3 3.0 41 18 8   97.30     LegendNANA
17:00 17.1 3.7 41 7 5   97.26     LegendNANA
18:00 17.6 2.7 37 11 7   97.23     LegendNANA
19:00 17.0 2.7 38 6 4   97.22     LegendNANA
20:00 15.9 4.5 47 20 4   97.21     LegendNANA
21:00 15.7 4.7 48 4 3   97.19     LegendNANA
22:00 13.5 5.4 58 36 1   97.18     LegendNANA
23:00 10.3 5.5 72 17 2   97.18     LegendNANA

Notes on Data Quality.

Legend

  • E = Estimated
  • M = Missing
  • NA = Not Available
Date modified: